Time,TemperatureF,DewpointF,PressureIn,WindDirection,WindDirectionDegrees,WindSpeedMPH,WindSpeedGustMPH,Humidity,HourlyPrecipIn,Conditions,Clouds,dailyrainin,SolarRadiationWatts/m^2,SoftwareType,DateUTC
2013-01-19 00:00:00,4.9,0.0,30.25,West,274,1.0,3.0,80,0.00,CLR,,0.00,0.0,WeatherDisplay:10.37,2013-01-19 05:00:00,
2013-01-19 00:02:00,4.9,0.1,30.25,West,274,2.3,2.3,80,0.00,CLR,,0.00,0.0,WeatherDisplay:10.37,2013-01-19 05:02:00,
2013-01-19 00:03:00,4.9,0.1,30.25,West,273,1.1,1.4,80,0.00,CLR,,0.00,0.0,WeatherDisplay:10.37,2013-01-19 05:03:00,
2013-01-19 00:08:00,4.9,0.1,30.25,West,274,2.3,2.3,80,0.00,CLR,,0.00,0.0,WeatherDisplay:10.37,2013-01-19 05:08:00,
2013-01-19 00:13:00,4.9,0.1,30.25,West,274,2.3,2.3,80,0.00,CLR,,0.00,0.0,WeatherDisplay:10.37,2013-01-19 05:13:00,
2013-01-19 00:18:00,4.9,0.1,30.25,West,274,2.3,2.3,80,0.00,CLR,,0.00,0.0,WeatherDisplay:10.37,2013-01-19 05:18:00,
2013-01-19 00:23:00,6.0,1.4,30.24,West,274,2.3,2.3,81,0.00,CLR,,0.00,0.0,WeatherDisplay:10.37,2013-01-19 05:23:00,
2013-01-19 00:28:00,6.0,1.4,30.24,West,274,0.0,0.7,81,0.00,CLR,,0.00,0.0,WeatherDisplay:10.37,2013-01-19 05:28:00,
2013-01-19 00:33:00,6.0,1.4,30.24,West,273,0.0,0.0,81,0.00,CLR,,0.00,0.0,WeatherDisplay:10.37,2013-01-19 05:33:00,
2013-01-19 00:38:00,6.0,1.4,30.24,West,274,0.0,0.7,81,0.00,CLR,,0.00,0.0,WeatherDisplay:10.37,2013-01-19 05:38:00,
2013-01-19 00:43:00,7.3,2.4,30.24,West,273,0.0,0.0,80,0.00,CLR,,0.00,0.0,WeatherDisplay:10.37,2013-01-19 05:43:00,
2013-01-19 00:48:00,7.6,2.7,30.24,West,274,0.0,0.0,80,0.00,CLR,,0.00,0.0,WeatherDisplay:10.37,2013-01-19 05:48:00,
2013-01-19 00:53:00,7.8,2.6,30.24,West,274,0.0,0.0,79,0.00,CLR,,0.00,0.0,WeatherDisplay:10.37,2013-01-19 05:53:00,
2013-01-19 00:58:00,6.0,1.4,30.24,West,274,0.0,0.7,81,0.00,CLR,,0.00,0.0,WeatherDisplay:10.37,2013-01-19 05:58:00,
2013-01-19 01:03:00,6.0,1.4,30.24,West,274,0.0,0.7,81,0.00,CLR,,0.00,0.0,WeatherDisplay:10.37,2013-01-19 06:03:00,
2013-01-19 01:08:00,8.6,4.0,30.24,West,274,0.0,0.0,81,0.00,CLR,,0.00,0.0,WeatherDisplay:10.37,2013-01-19 06:08:00,
2013-01-19 01:13:00,8.7,3.8,30.24,West,274,0.0,0.0,80,0.00,CLR,,0.00,0.0,WeatherDisplay:10.37,2013-01-19 06:13:00,
2013-01-19 01:18:00,8.8,4.2,30.24,West,273,1.1,1.1,81,0.00,CLR,,0.00,0.0,WeatherDisplay:10.37,2013-01-19 06:18:00,
2013-01-19 01:23:00,8.9,4.3,30.24,West,274,0.0,0.0,81,0.00,CLR,,0.00,0.0,WeatherDisplay:10.37,2013-01-19 06:23:00,
2013-01-19 01:28:00,8.8,4.2,30.24,West,274,0.0,0.0,81,0.00,CLR,,0.00,0.0,WeatherDisplay:10.37,2013-01-19 06:28:00,
2013-01-19 01:33:00,8.9,4.3,30.24,West,274,0.0,0.0,81,0.00,CLR,,0.00,0.0,WeatherDisplay:10.37,2013-01-19 06:33:00,
2013-01-19 01:38:00,8.9,4.3,30.24,West,274,0.0,0.0,81,0.00,CLR,,0.00,0.0,WeatherDisplay:10.37,2013-01-19 06:38:00,
2013-01-19 01:43:00,8.9,4.3,30.24,West,274,0.0,0.0,81,0.00,CLR,,0.00,0.0,WeatherDisplay:10.37,2013-01-19 06:43:00,
2013-01-19 01:48:00,8.9,4.3,30.24,West,274,0.0,0.0,81,0.00,CLR,,0.00,0.0,WeatherDisplay:10.37,2013-01-19 06:48:00,
2013-01-19 01:53:00,10.4,6.3,30.23,West,274,2.3,2.3,83,0.00,CLR,,0.00,0.0,WeatherDisplay:10.37,2013-01-19 06:53:00,
2013-01-19 01:58:00,8.9,4.3,30.24,West,274,0.0,0.0,81,0.00,CLR,,0.00,0.0,WeatherDisplay:10.37,2013-01-19 06:58:00,
2013-01-19 02:03:00,10.7,6.6,30.23,West,274,0.0,0.0,83,0.00,CLR,,0.00,0.0,WeatherDisplay:10.37,2013-01-19 07:03:00,
2013-01-19 02:08:00,10.7,6.6,30.21,West,274,0.0,0.0,83,0.00,CLR,,0.00,0.0,WeatherDisplay:10.37,2013-01-19 07:08:00,
2013-01-19 02:13:00,10.8,6.7,30.21,West,274,1.1,0.0,83,0.00,CLR,,0.00,0.0,WeatherDisplay:10.37,2013-01-19 07:13:00,
2013-01-19 02:19:00,10.7,6.6,30.21,West,273,0.0,0.0,83,0.00,CLR,,0.00,0.0,WeatherDisplay:10.37,2013-01-19 07:19:00,
2013-01-19 02:24:00,11.2,7.3,30.20,West,273,1.1,1.1,84,0.00,CLR,,0.00,0.0,WeatherDisplay:10.37,2013-01-19 07:24:00,
2013-01-19 02:29:00,11.3,7.4,30.20,West,273,0.0,0.0,84,0.00,CLR,,0.00,0.0,WeatherDisplay:10.37,2013-01-19 07:29:00,
2013-01-19 02:34:00,11.5,7.6,30.20,West,274,0.0,0.0,84,0.00,CLR,,0.00,0.0,WeatherDisplay:10.37,2013-01-19 07:34:00,
2013-01-19 02:39:00,11.2,7.3,30.20,West,274,0.0,0.0,84,0.00,CLR,,0.00,0.0,WeatherDisplay:10.37,2013-01-19 07:39:00,
2013-01-19 02:44:00,11.7,7.8,30.20,West,274,0.0,0.0,84,0.00,CLR,,0.00,0.0,WeatherDisplay:10.37,2013-01-19 07:44:00,
2013-01-19 02:49:00,11.7,7.8,30.20,West,273,0.0,0.0,84,0.00,CLR,,0.00,0.0,WeatherDisplay:10.37,2013-01-19 07:49:00,
2013-01-19 02:54:00,11.7,7.8,30.20,West,274,0.0,0.0,84,0.00,CLR,,0.00,0.0,WeatherDisplay:10.37,2013-01-19 07:54:00,
2013-01-19 02:59:00,11.7,7.8,30.20,West,273,0.0,0.0,84,0.00,CLR,,0.00,0.0,WeatherDisplay:10.37,2013-01-19 07:59:00,
2013-01-19 03:04:00,12.4,8.7,30.19,West,274,0.0,0.0,85,0.00,CLR,,0.00,0.0,WeatherDisplay:10.37,2013-01-19 08:04:00,
2013-01-19 03:09:00,12.6,8.9,30.17,West,274,0.0,0.0,85,0.00,CLR,,0.00,0.0,WeatherDisplay:10.37,2013-01-19 08:09:00,
2013-01-19 03:14:00,12.7,9.0,30.17,West,274,0.0,0.0,85,0.00,CLR,,0.00,0.0,WeatherDisplay:10.37,2013-01-19 08:14:00,
2013-01-19 03:19:00,12.6,8.9,30.17,West,274,0.0,0.0,85,0.00,CLR,,0.00,0.0,WeatherDisplay:10.37,2013-01-19 08:19:00,
2013-01-19 03:24:00,12.8,9.1,30.17,West,274,0.0,0.0,85,0.00,CLR,,0.00,0.0,WeatherDisplay:10.37,2013-01-19 08:24:00,
2013-01-19 03:29:00,12.8,9.1,30.17,West,273,0.0,0.0,85,0.00,CLR,,0.00,0.0,WeatherDisplay:10.37,2013-01-19 08:29:00,
2013-01-19 03:34:00,12.9,9.2,30.17,West,274,0.0,0.0,85,0.00,CLR,,0.00,0.0,WeatherDisplay:10.37,2013-01-19 08:34:00,
2013-01-19 03:39:00,12.9,9.2,30.17,West,274,0.0,0.0,85,0.00,CLR,,0.00,0.0,WeatherDisplay:10.37,2013-01-19 08:39:00,
2013-01-19 03:44:00,12.9,9.2,30.17,West,274,0.0,0.0,85,0.00,CLR,,0.00,0.0,WeatherDisplay:10.37,2013-01-19 08:44:00,
2013-01-19 03:49:00,12.9,9.2,30.17,West,274,0.0,0.0,85,0.00,CLR,,0.00,0.0,WeatherDisplay:10.37,2013-01-19 08:49:00,
2013-01-19 03:54:00,13.1,9.4,30.14,West,274,0.0,0.0,85,0.00,CLR,,0.00,0.0,WeatherDisplay:10.37,2013-01-19 08:54:00,
2013-01-19 03:59:00,13.2,9.5,30.14,West,273,0.0,0.0,85,0.00,CLR,,0.00,0.0,WeatherDisplay:10.37,2013-01-19 08:59:00,
2013-01-19 04:04:00,13.2,9.5,30.14,West,273,0.0,0.0,85,0.00,CLR,,0.00,0.0,WeatherDisplay:10.37,2013-01-19 09:04:00,
2013-01-19 04:09:00,13.1,9.4,30.14,West,274,0.0,0.0,85,0.00,CLR,,0.00,0.0,WeatherDisplay:10.37,2013-01-19 09:09:00,
2013-01-19 04:14:00,13.1,9.4,30.14,West,273,0.0,0.0,85,0.00,CLR,,0.00,0.0,WeatherDisplay:10.37,2013-01-19 09:14:00,
2013-01-19 04:19:00,13.1,9.4,30.14,West,274,0.0,0.0,85,0.00,CLR,,0.00,0.0,WeatherDisplay:10.37,2013-01-19 09:19:00,
2013-01-19 04:24:00,12.9,9.2,30.13,West,274,0.0,0.0,85,0.00,CLR,,0.00,0.0,WeatherDisplay:10.37,2013-01-19 09:24:00,
2013-01-19 04:29:00,13.1,9.4,30.14,West,273,0.0,0.0,85,0.00,CLR,,0.00,0.0,WeatherDisplay:10.37,2013-01-19 09:29:00,
2013-01-19 04:34:00,12.7,9.0,30.13,West,273,0.0,0.0,85,0.00,CLR,,0.00,0.0,WeatherDisplay:10.37,2013-01-19 09:34:00,
2013-01-19 04:39:00,12.7,9.0,30.13,West,273,0.0,0.0,85,0.00,CLR,,0.00,0.0,WeatherDisplay:10.37,2013-01-19 09:39:00,
2013-01-19 04:44:00,12.6,8.9,30.11,West,274,1.1,1.1,85,0.00,CLR,,0.00,0.0,WeatherDisplay:10.37,2013-01-19 09:44:00,
2013-01-19 04:49:00,12.4,8.7,30.11,West,273,0.0,0.0,85,0.00,CLR,,0.00,0.0,WeatherDisplay:10.37,2013-01-19 09:49:00,
2013-01-19 04:54:00,12.4,8.7,30.11,West,274,0.0,0.0,85,0.00,CLR,,0.00,0.0,WeatherDisplay:10.37,2013-01-19 09:54:00,
2013-01-19 04:59:00,12.6,8.9,30.11,West,274,1.1,1.1,85,0.00,CLR,,0.00,0.0,WeatherDisplay:10.37,2013-01-19 09:59:00,
2013-01-19 05:04:00,12.3,8.9,30.11,West,274,0.0,0.0,86,0.00,CLR,,0.00,0.0,WeatherDisplay:10.37,2013-01-19 10:04:00,
2013-01-19 05:09:00,12.4,9.0,30.11,West,274,0.0,0.0,86,0.00,CLR,,0.00,0.0,WeatherDisplay:10.37,2013-01-19 10:09:00,
2013-01-19 05:14:00,12.4,9.0,30.11,West,273,1.1,1.1,86,0.00,CLR,,0.00,0.0,WeatherDisplay:10.37,2013-01-19 10:14:00,
2013-01-19 05:19:00,12.4,9.0,30.11,West,273,0.0,0.3,86,0.00,CLR,,0.00,0.0,WeatherDisplay:10.37,2013-01-19 10:19:00,
2013-01-19 05:24:00,12.4,9.0,30.11,West,273,0.0,0.3,86,0.00,CLR,,0.00,0.0,WeatherDisplay:10.37,2013-01-19 10:24:00,
2013-01-19 05:29:00,12.4,9.0,30.11,West,273,0.0,0.0,86,0.00,CLR,,0.00,0.0,WeatherDisplay:10.37,2013-01-19 10:29:00,
2013-01-19 05:34:00,12.4,9.0,30.11,West,273,0.0,0.3,86,0.00,CLR,,0.00,0.0,WeatherDisplay:10.37,2013-01-19 10:34:00,
2013-01-19 05:39:00,12.9,9.8,30.09,West,274,0.0,0.0,87,0.00,CLR,,0.00,0.0,WeatherDisplay:10.37,2013-01-19 10:39:00,
2013-01-19 05:44:00,12.4,9.0,30.11,West,273,0.0,0.3,86,0.00,CLR,,0.00,0.0,WeatherDisplay:10.37,2013-01-19 10:44:00,
2013-01-19 05:49:00,12.4,9.0,30.11,West,273,0.0,0.3,86,0.00,CLR,,0.00,0.0,WeatherDisplay:10.37,2013-01-19 10:49:00,
2013-01-19 05:54:00,13.1,10.2,30.08,West,274,0.0,0.0,88,0.00,CLR,,0.00,0.0,WeatherDisplay:10.37,2013-01-19 10:54:00,
2013-01-19 05:59:00,13.1,10.2,30.08,West,274,0.0,0.0,88,0.00,CLR,,0.00,0.0,WeatherDisplay:10.37,2013-01-19 10:59:00,
2013-01-19 06:04:00,13.1,10.2,30.08,West,274,0.0,0.0,88,0.00,CLR,,0.00,0.0,WeatherDisplay:10.37,2013-01-19 11:04:00,
2013-01-19 06:09:00,13.1,10.0,30.08,West,274,0.0,0.0,87,0.00,CLR,,0.00,0.0,WeatherDisplay:10.37,2013-01-19 11:09:00,
2013-01-19 06:15:00,13.1,10.0,30.08,West,274,0.0,0.0,87,0.00,CLR,,0.00,0.0,WeatherDisplay:10.37,2013-01-19 11:15:00,
2013-01-19 07:48:00,14.8,12.1,30.05,West,274,0.0,0.0,89,0.00,BKN,,0.00,16.0,WeatherDisplay:10.37,2013-01-19 12:48:00,
2013-01-19 07:53:00,15.1,12.7,30.05,West,274,0.0,0.0,90,0.00,BKN,,0.00,14.0,WeatherDisplay:10.37,2013-01-19 12:53:00,
2013-01-19 07:58:00,15.1,12.7,30.05,West,274,0.0,0.0,90,0.00,BKN,,0.00,16.0,WeatherDisplay:10.37,2013-01-19 12:58:00,
2013-01-19 08:03:00,15.4,13.0,30.05,West,273,0.0,0.0,90,0.00,BKN,,0.00,23.0,WeatherDisplay:10.37,2013-01-19 13:03:00,
2013-01-19 08:08:00,15.1,12.7,30.05,West,274,0.0,0.0,90,0.00,BKN,,0.00,16.0,WeatherDisplay:10.37,2013-01-19 13:08:00,
2013-01-19 08:13:00,15.1,12.7,30.05,West,274,0.0,0.0,90,0.00,BKN,,0.00,16.0,WeatherDisplay:10.37,2013-01-19 13:13:00,
2013-01-19 08:18:00,15.1,12.7,30.05,West,274,0.0,0.0,90,0.00,BKN,,0.00,16.0,WeatherDisplay:10.37,2013-01-19 13:18:00,
2013-01-19 08:23:00,16.3,13.9,30.03,West,274,0.0,0.0,90,0.00,BKN,,0.00,26.0,WeatherDisplay:10.37,2013-01-19 13:23:00,
2013-01-19 08:28:00,16.5,14.1,30.03,West,274,1.1,0.0,90,0.00,BKN,,0.00,32.0,WeatherDisplay:10.37,2013-01-19 13:28:00,
2013-01-19 08:33:00,16.5,14.1,30.03,West,273,0.0,0.3,90,0.00,BKN,,0.00,35.0,WeatherDisplay:10.37,2013-01-19 13:33:00,
2013-01-19 08:38:00,16.5,14.1,30.03,West,273,0.0,0.3,90,0.00,BKN,,0.00,35.0,WeatherDisplay:10.37,2013-01-19 13:38:00,
2013-01-19 08:44:00,16.7,14.3,30.03,West,274,0.0,0.0,90,0.00,BKN,,0.00,42.0,WeatherDisplay:10.37,2013-01-19 13:44:00,
2013-01-19 08:49:00,16.8,14.4,30.03,West,274,0.0,0.0,90,0.00,BKN,,0.00,47.0,WeatherDisplay:10.37,2013-01-19 13:49:00,
2013-01-19 08:54:00,17.2,14.8,30.03,West,273,2.3,2.3,90,0.00,BKN,,0.00,74.0,WeatherDisplay:10.37,2013-01-19 13:54:00,
2013-01-19 08:59:00,16.8,14.4,30.03,West,274,0.0,0.0,90,0.00,BKN,,0.00,47.0,WeatherDisplay:10.37,2013-01-19 13:59:00,
2013-01-19 09:04:00,17.6,15.2,30.03,West,274,0.0,0.0,90,0.00,BKN,,0.00,102.0,WeatherDisplay:10.37,2013-01-19 14:04:00,
2013-01-19 09:09:00,17.7,15.3,30.03,West,274,0.0,0.0,90,0.00,BKN,,0.00,104.0,WeatherDisplay:10.37,2013-01-19 14:09:00,
2013-01-19 09:14:00,17.6,15.2,30.03,West,274,0.0,0.0,90,0.00,BKN,,0.00,102.0,WeatherDisplay:10.37,2013-01-19 14:14:00,
2013-01-19 09:19:00,19.2,16.7,30.03,SSE,165,2.3,2.3,90,0.00,BKN,,0.00,79.0,WeatherDisplay:10.37,2013-01-19 14:19:00,
2013-01-19 09:24:00,19.2,16.7,30.03,SSE,165,2.3,2.3,90,0.00,BKN,,0.00,79.0,WeatherDisplay:10.37,2013-01-19 14:24:00,
2013-01-19 09:29:00,19.3,16.8,30.03,SSE,166,0.0,0.3,90,0.00,BKN,,0.00,84.0,WeatherDisplay:10.37,2013-01-19 14:29:00,
2013-01-19 09:34:00,19.2,16.7,30.03,SSE,165,2.3,2.3,90,0.00,BKN,,0.00,79.0,WeatherDisplay:10.37,2013-01-19 14:34:00,
2013-01-19 09:39:00,22.3,19.8,30.02,East,97,0.0,0.4,90,0.00,SCT,,0.00,142.0,WeatherDisplay:10.37,2013-01-19 14:39:00,
2013-01-19 09:44:00,23.5,20.2,30.02,SE,136,2.3,2.3,87,0.00,BKN,,0.00,132.0,WeatherDisplay:10.37,2013-01-19 14:44:00,
2013-01-19 09:49:00,22.3,19.8,30.02,East,97,0.0,0.4,90,0.00,BKN,,0.00,142.0,WeatherDisplay:10.37,2013-01-19 14:49:00,
2013-01-19 09:54:00,24.0,20.1,30.02,East,94,3.5,3.5,85,0.00,SCT,,0.00,153.0,WeatherDisplay:10.37,2013-01-19 14:54:00,
2013-01-19 09:59:00,24.0,20.1,30.01,East,88,1.1,2.3,85,0.00,BKN,,0.00,149.0,WeatherDisplay:10.37,2013-01-19 14:59:00,
2013-01-19 10:04:00,24.0,20.1,30.02,East,94,3.5,3.5,85,0.00,BKN,,0.00,153.0,WeatherDisplay:10.37,2013-01-19 15:04:00,
2013-01-19 10:09:00,24.0,20.1,30.02,East,94,3.5,3.5,85,0.00,BKN,,0.00,153.0,WeatherDisplay:10.37,2013-01-19 15:09:00,
2013-01-19 10:14:00,24.0,20.1,30.02,East,94,3.5,3.5,85,0.00,BKN,,0.00,153.0,WeatherDisplay:10.37,2013-01-19 15:14:00,
2013-01-19 10:19:00,23.5,17.9,30.01,East,79,0.0,0.5,79,0.00,BKN,,0.00,144.0,WeatherDisplay:10.37,2013-01-19 15:19:00,
2013-01-19 10:24:00,23.6,18.0,30.01,East,92,1.1,1.1,79,0.00,BKN,,0.00,118.0,WeatherDisplay:10.37,2013-01-19 15:24:00,
2013-01-19 10:29:00,23.5,18.2,30.01,ESE,105,1.1,1.1,80,0.00,BKN,,0.00,118.0,WeatherDisplay:10.37,2013-01-19 15:29:00,
2013-01-19 10:34:00,23.4,18.4,30.01,ESE,109,0.0,0.1,81,0.00,BKN,,0.00,156.0,WeatherDisplay:10.37,2013-01-19 15:34:00,
2013-01-19 10:39:00,23.6,18.3,30.00,ESE,109,2.3,2.3,80,0.00,CLR,,0.00,376.0,WeatherDisplay:10.37,2013-01-19 15:39:00,
2013-01-19 10:44:00,24.4,18.5,30.00,East,82,2.3,2.3,78,0.00,CLR,,0.00,401.0,WeatherDisplay:10.37,2013-01-19 15:44:00,
2013-01-19 10:49:00,24.5,18.9,30.00,East,82,0.0,0.3,79,0.00,CLR,,0.00,420.0,WeatherDisplay:10.37,2013-01-19 15:49:00,
2013-01-19 10:54:00,24.5,18.9,30.00,East,82,0.0,0.3,79,0.00,CLR,,0.00,420.0,WeatherDisplay:10.37,2013-01-19 15:54:00,
2013-01-19 10:59:00,24.5,18.9,30.00,East,82,0.0,0.3,79,0.00,CLR,,0.00,420.0,WeatherDisplay:10.37,2013-01-19 15:59:00,
2013-01-19 11:04:00,24.5,18.9,30.00,East,82,0.0,0.3,79,0.00,CLR,,0.00,420.0,WeatherDisplay:10.37,2013-01-19 16:04:00,
2013-01-19 11:09:00,26.8,19.6,29.97,East,82,1.1,1.1,74,0.00,BKN,,0.00,146.0,WeatherDisplay:10.37,2013-01-19 16:09:00,
2013-01-19 11:14:00,24.5,18.9,30.00,East,82,0.0,0.3,79,0.00,CLR,,0.00,420.0,WeatherDisplay:10.37,2013-01-19 16:14:00,
2013-01-19 11:19:00,24.5,18.9,30.00,East,82,0.0,0.3,79,0.00,CLR,,0.00,420.0,WeatherDisplay:10.37,2013-01-19 16:19:00,
2013-01-19 11:24:00,27.7,19.5,29.95,East,84,1.1,1.1,71,0.00,BKN,,0.00,186.0,WeatherDisplay:10.37,2013-01-19 16:24:00,
2013-01-19 11:29:00,27.6,19.8,29.95,East,83,0.0,1.3,72,0.00,BKN,,0.00,181.0,WeatherDisplay:10.37,2013-01-19 16:29:00,
2013-01-19 11:34:00,27.6,19.8,29.95,East,83,0.0,1.3,72,0.00,BKN,,0.00,181.0,WeatherDisplay:10.37,2013-01-19 16:34:00,
2013-01-19 11:39:00,27.7,19.5,29.95,East,84,0.0,0.2,71,0.00,BKN,,0.00,186.0,WeatherDisplay:10.37,2013-01-19 16:39:00,
2013-01-19 11:44:00,28.0,19.5,29.94,ESE,103,3.5,3.5,70,0.00,BKN,,0.00,174.0,WeatherDisplay:10.37,2013-01-19 16:44:00,
2013-01-19 11:49:00,28.0,19.5,29.94,ESE,103,0.0,0.8,70,0.00,BKN,,0.00,165.0,WeatherDisplay:10.37,2013-01-19 16:49:00,
2013-01-19 11:54:00,28.0,19.5,29.94,ESE,103,0.0,0.8,70,0.00,BKN,,0.00,165.0,WeatherDisplay:10.37,2013-01-19 16:54:00,
2013-01-19 11:59:00,27.8,19.9,29.93,ESE,107,3.5,3.5,72,0.00,BKN,,0.00,188.0,WeatherDisplay:10.37,2013-01-19 16:59:00,
2013-01-19 12:04:00,28.0,20.1,29.93,ESE,107,0.0,0.0,72,0.00,BKN,,0.00,190.0,WeatherDisplay:10.37,2013-01-19 17:04:00,
2013-01-19 12:09:00,28.2,21.0,29.92,East,84,2.3,2.3,74,0.00,BKN,,0.00,192.0,WeatherDisplay:10.37,2013-01-19 17:09:00,
2013-01-19 12:15:00,28.3,20.4,29.92,ESE,106,1.0,2.0,72,0.00,SCT,,0.00,223.0,WeatherDisplay:10.37,2013-01-19 17:15:00,
2013-01-19 12:20:00,28.7,19.5,29.92,East,97,1.1,1.1,68,0.00,SCT,,0.00,248.0,WeatherDisplay:10.37,2013-01-19 17:20:00,
2013-01-19 12:25:00,29.2,21.3,29.90,East,97,0.0,0.5,72,0.00,SCT,,0.00,209.0,WeatherDisplay:10.37,2013-01-19 17:25:00,
2013-01-19 12:30:00,29.0,21.4,29.90,East,96,1.1,1.1,73,0.00,SCT,,0.00,221.0,WeatherDisplay:10.37,2013-01-19 17:30:00,
2013-01-19 12:35:00,29.4,20.5,29.90,East,90,2.3,2.3,69,0.00,BKN,,0.00,186.0,WeatherDisplay:10.37,2013-01-19 17:35:00,
2013-01-19 12:40:00,29.6,21.0,29.89,East,92,2.3,2.3,70,0.00,BKN,,0.00,181.0,WeatherDisplay:10.37,2013-01-19 17:40:00,
2013-01-19 12:46:00,29.6,21.0,29.89,East,92,0.0,0.8,70,0.00,BKN,,0.00,181.0,WeatherDisplay:10.37,2013-01-19 17:46:00,
2013-01-19 12:51:00,29.9,20.3,29.89,ESE,102,1.1,1.1,67,0.00,BKN,,0.00,142.0,WeatherDisplay:10.37,2013-01-19 17:51:00,
2013-01-19 12:56:00,29.9,20.3,29.89,WSW,244,1.1,1.9,67,0.00,BKN,,0.00,142.0,WeatherDisplay:10.37,2013-01-19 17:56:00,
2013-01-19 13:01:00,30.1,20.1,29.89,East,92,1.1,1.1,66,0.00,BKN,,0.00,151.0,WeatherDisplay:10.37,2013-01-19 18:01:00,
2013-01-19 13:06:00,30.4,20.0,29.89,East,92,2.3,2.3,65,0.00,BKN,,0.00,165.0,WeatherDisplay:10.37,2013-01-19 18:06:00,
2013-01-19 13:11:00,30.5,19.8,29.89,East,92,0.0,0.0,64,0.00,BKN,,0.00,171.0,WeatherDisplay:10.37,2013-01-19 18:11:00,
2013-01-19 13:17:00,30.5,19.8,29.89,East,92,0.0,0.0,64,0.00,BKN,,0.00,171.0,WeatherDisplay:10.37,2013-01-19 18:17:00,
2013-01-19 13:23:00,30.8,20.0,29.88,East,91,1.1,1.1,64,0.00,BKN,,0.00,113.0,WeatherDisplay:10.37,2013-01-19 18:23:00,
2013-01-19 13:29:00,31.2,20.4,29.88,ENE,76,0.0,0.0,64,0.00,BKN,,0.00,114.0,WeatherDisplay:10.37,2013-01-19 18:29:00,
2013-01-19 13:34:00,31.1,20.3,29.88,ENE,76,0.0,0.4,64,0.00,BKN,,0.00,114.0,WeatherDisplay:10.37,2013-01-19 18:34:00,
2013-01-19 13:40:00,31.1,20.3,29.88,ENE,76,0.0,0.0,64,0.00,BKN,,0.00,114.0,WeatherDisplay:10.37,2013-01-19 18:40:00,
2013-01-19 13:45:00,31.2,20.4,29.88,ENE,76,0.0,0.0,64,0.00,BKN,,0.00,114.0,WeatherDisplay:10.37,2013-01-19 18:45:00,
2013-01-19 13:50:00,31.8,21.0,29.87,ENE,73,1.1,1.1,64,0.00,BKN,,0.00,142.0,WeatherDisplay:10.37,2013-01-19 18:50:00,
2013-01-19 13:55:00,31.2,20.4,29.88,ENE,76,0.0,0.0,64,0.00,BKN,,0.00,114.0,WeatherDisplay:10.37,2013-01-19 18:55:00,
2013-01-19 14:04:00,31.2,20.4,29.88,ENE,76,0.0,0.0,64,0.00,BKN,,0.00,114.0,WeatherDisplay:10.37,2013-01-19 19:04:00,
2013-01-19 14:09:00,33.4,21.4,29.87,NW,319,3.5,3.5,61,0.00,SCT,,0.00,151.0,WeatherDisplay:10.37,2013-01-19 19:09:00,
2013-01-19 14:15:00,33.1,21.5,29.87,ENE,77,0.0,2.0,62,0.00,SCT,,0.00,146.0,WeatherDisplay:10.37,2013-01-19 19:15:00,
2013-01-19 14:20:00,33.4,21.8,29.87,West,261,2.3,2.3,62,0.00,SCT,,0.00,144.0,WeatherDisplay:10.37,2013-01-19 19:20:00,
2013-01-19 14:26:00,33.4,21.8,29.87,West,261,2.3,2.3,62,0.00,SCT,,0.00,144.0,WeatherDisplay:10.37,2013-01-19 19:26:00,
2013-01-19 14:32:00,34.4,21.9,29.87,WNW,299,0.0,1.8,60,0.00,SCT,,0.00,139.0,WeatherDisplay:10.37,2013-01-19 19:32:00,
2013-01-19 14:37:00,34.3,22.2,29.87,WSW,258,2.3,2.3,61,0.00,SCT,,0.00,141.0,WeatherDisplay:10.37,2013-01-19 19:37:00,
2013-01-19 14:42:00,34.5,22.0,29.87,WNW,294,0.0,0.0,60,0.00,SCT,,0.00,116.0,WeatherDisplay:10.37,2013-01-19 19:42:00,
2013-01-19 14:47:00,35.0,22.9,29.87,WNW,294,0.0,0.1,61,0.00,SCT,,0.00,81.0,WeatherDisplay:10.37,2013-01-19 19:47:00,
2013-01-19 14:53:00,35.0,22.5,29.87,WNW,294,0.0,0.4,60,0.00,BKN,,0.00,84.0,WeatherDisplay:10.37,2013-01-19 19:53:00,
2013-01-19 14:59:00,35.0,22.5,29.87,WNW,294,0.0,0.4,60,0.00,BKN,,0.00,84.0,WeatherDisplay:10.37,2013-01-19 19:59:00,
2013-01-19 15:05:00,35.0,22.5,29.87,WNW,294,0.0,0.0,60,0.00,BKN,,0.00,84.0,WeatherDisplay:10.37,2013-01-19 20:05:00,
2013-01-19 15:10:00,35.0,22.9,29.87,WNW,294,0.0,0.0,61,0.00,BKN,,0.00,74.0,WeatherDisplay:10.37,2013-01-19 20:10:00,
2013-01-19 15:15:00,35.2,23.1,29.86,WNW,294,2.0,4.0,61,0.00,SCT,,0.00,77.0,WeatherDisplay:10.37,2013-01-19 20:15:00,
2013-01-19 15:22:00,34.8,23.1,29.86,WNW,294,3.5,3.5,62,0.00,BKN,,0.00,51.0,WeatherDisplay:10.37,2013-01-19 20:22:00,
2013-01-19 15:27:00,35.1,23.4,29.86,WNW,294,3.5,3.5,62,0.00,BKN,,0.00,60.0,WeatherDisplay:10.37,2013-01-19 20:27:00,
2013-01-19 15:33:00,35.1,23.4,29.86,WNW,294,3.5,3.5,62,0.00,SCT,,0.00,60.0,WeatherDisplay:10.37,2013-01-19 20:33:00,
2013-01-19 15:38:00,34.4,24.2,29.85,WNW,293,0.0,0.1,66,0.00,BKN,,0.00,44.0,WeatherDisplay:10.37,2013-01-19 20:38:00,
2013-01-19 15:44:00,35.1,23.4,29.86,WNW,294,3.5,3.5,62,0.00,SCT,,0.00,60.0,WeatherDisplay:10.37,2013-01-19 20:44:00,
2013-01-19 15:49:00,35.1,23.4,29.86,WNW,294,3.5,3.5,62,0.00,SCT,,0.00,60.0,WeatherDisplay:10.37,2013-01-19 20:49:00,
2013-01-19 15:54:00,34.4,24.2,29.85,WNW,294,0.0,0.0,66,0.00,BKN,,0.00,23.0,WeatherDisplay:10.37,2013-01-19 20:54:00,
2013-01-19 15:59:00,34.4,24.2,29.85,WNW,293,0.0,0.0,66,0.00,BKN,,0.00,25.0,WeatherDisplay:10.37,2013-01-19 20:59:00,
2013-01-19 16:04:00,34.4,24.2,29.85,WNW,293,0.0,0.0,66,0.00,BKN,,0.00,25.0,WeatherDisplay:10.37,2013-01-19 21:04:00,
2013-01-19 16:10:00,34.4,24.2,29.85,WNW,293,0.0,0.0,66,0.00,SCT,,0.00,25.0,WeatherDisplay:10.37,2013-01-19 21:10:00,
2013-01-19 16:15:00,34.4,24.6,29.85,WNW,294,0.0,1.0,67,0.00,BKN,,0.00,12.0,WeatherDisplay:10.37,2013-01-19 21:15:00,
2013-01-19 16:20:00,34.3,24.8,29.85,WNW,294,0.0,0.0,68,0.00,BKN,,0.00,11.0,WeatherDisplay:10.37,2013-01-19 21:20:00,
2013-01-19 16:25:00,34.4,24.2,29.85,WNW,293,0.0,0.0,66,0.00,CLR,,0.00,25.0,WeatherDisplay:10.37,2013-01-19 21:25:00,
2013-01-19 16:30:00,33.8,24.7,29.85,WNW,294,2.0,4.0,69,0.00,SCT,,0.00,5.0,WeatherDisplay:10.37,2013-01-19 21:30:00,
2013-01-19 16:35:00,33.1,24.0,29.85,WNW,293,3.5,3.5,69,0.00,CLR,,0.00,0.0,WeatherDisplay:10.37,2013-01-19 21:35:00,
2013-01-19 16:43:00,34.4,24.2,29.85,WNW,293,0.0,0.0,66,0.00,CLR,,0.00,25.0,WeatherDisplay:10.37,2013-01-19 21:43:00,
2013-01-19 16:48:00,32.6,23.6,29.85,WNW,293,2.3,2.3,69,0.00,CLR,,0.00,0.0,WeatherDisplay:10.37,2013-01-19 21:48:00,
2013-01-19 16:54:00,31.7,23.4,29.85,WNW,294,2.3,2.3,71,0.00,CLR,,0.00,0.0,WeatherDisplay:10.37,2013-01-19 21:54:00,
2013-01-19 16:59:00,31.2,23.2,29.85,WNW,294,3.5,3.5,72,0.00,CLR,,0.00,0.0,WeatherDisplay:10.37,2013-01-19 21:59:00,
2013-01-19 17:05:00,31.8,23.5,29.85,WNW,294,0.0,0.0,71,0.00,CLR,,0.00,0.0,WeatherDisplay:10.37,2013-01-19 22:05:00,
2013-01-19 17:10:00,31.8,23.5,29.85,WNW,294,0.0,0.0,71,0.00,CLR,,0.00,0.0,WeatherDisplay:10.37,2013-01-19 22:10:00,
2013-01-19 17:15:00,31.8,23.5,29.85,WNW,294,0.0,0.2,71,0.00,CLR,,0.00,0.0,WeatherDisplay:10.37,2013-01-19 22:15:00,
2013-01-19 17:20:00,31.8,23.5,29.85,WNW,294,0.0,0.2,71,0.00,CLR,,0.00,0.0,WeatherDisplay:10.37,2013-01-19 22:20:00,
2013-01-19 17:25:00,30.2,22.9,29.85,WNW,294,2.0,3.0,74,0.00,CLR,,0.00,0.0,WeatherDisplay:10.37,2013-01-19 22:25:00,
2013-01-19 17:30:00,30.2,22.9,29.85,WNW,294,3.5,3.5,74,0.00,CLR,,0.00,0.0,WeatherDisplay:10.37,2013-01-19 22:30:00,
2013-01-19 17:35:00,29.7,22.7,29.86,WNW,294,0.0,0.0,75,0.00,CLR,,0.00,0.0,WeatherDisplay:10.37,2013-01-19 22:35:00,
2013-01-19 17:40:00,29.7,22.7,29.86,WNW,294,0.0,0.0,75,0.00,CLR,,0.00,0.0,WeatherDisplay:10.37,2013-01-19 22:40:00,
2013-01-19 17:45:00,29.2,22.9,29.87,WNW,294,2.3,2.3,77,0.00,CLR,,0.00,0.0,WeatherDisplay:10.37,2013-01-19 22:45:00,
2013-01-19 17:50:00,29.0,22.7,29.87,WNW,294,1.1,1.3,77,0.00,CLR,,0.00,0.0,WeatherDisplay:10.37,2013-01-19 22:50:00,
2013-01-19 17:55:00,28.5,22.5,29.87,WNW,294,2.3,2.3,78,0.00,CLR,,0.00,0.0,WeatherDisplay:10.37,2013-01-19 22:55:00,
2013-01-19 18:01:00,29.0,22.7,29.87,WNW,294,1.1,1.3,77,0.00,CLR,,0.00,0.0,WeatherDisplay:10.37,2013-01-19 23:01:00,
2013-01-19 18:06:00,27.9,21.9,29.86,WNW,294,2.0,2.0,78,0.00,CLR,,0.00,0.0,WeatherDisplay:10.37,2013-01-19 23:06:00,
2013-01-19 18:13:00,27.7,22.0,29.86,WNW,294,0.0,0.0,79,0.00,CLR,,0.00,0.0,WeatherDisplay:10.37,2013-01-19 23:13:00,
2013-01-19 18:18:00,27.6,21.9,29.86,WNW,294,1.1,1.1,79,0.00,CLR,,0.00,0.0,WeatherDisplay:10.37,2013-01-19 23:18:00,
2013-01-19 18:23:00,28.5,22.5,29.87,WNW,294,1.1,1.1,78,0.00,CLR,,0.00,0.0,WeatherDisplay:10.37,2013-01-19 23:23:00,
2013-01-19 18:29:00,27.6,21.9,29.86,WNW,294,0.0,0.3,79,0.00,CLR,,0.00,0.0,WeatherDisplay:10.37,2013-01-19 23:29:00,
2013-01-19 18:34:00,27.6,22.2,29.86,WNW,294,0.0,0.0,80,0.00,CLR,,0.00,0.0,WeatherDisplay:10.37,2013-01-19 23:34:00,
2013-01-19 18:39:00,27.6,22.2,29.87,WNW,293,0.0,0.0,80,0.00,CLR,,0.00,0.0,WeatherDisplay:10.37,2013-01-19 23:39:00,
2013-01-19 18:44:00,27.6,22.2,29.87,WNW,293,0.0,0.0,80,0.00,CLR,,0.00,0.0,WeatherDisplay:10.37,2013-01-19 23:44:00,
2013-01-19 18:49:00,27.6,22.2,29.87,WNW,293,0.0,0.0,80,0.00,CLR,,0.00,0.0,WeatherDisplay:10.37,2013-01-19 23:49:00,
2013-01-19 18:54:00,27.6,22.2,29.87,WNW,293,0.0,0.0,80,0.00,CLR,,0.00,0.0,WeatherDisplay:10.37,2013-01-19 23:54:00,
2013-01-19 19:00:00,27.5,22.4,29.87,WNW,294,0.0,0.0,81,0.00,CLR,,0.00,0.0,WeatherDisplay:10.37,2013-01-20 00:00:00,
2013-01-19 19:06:00,27.6,22.2,29.87,WNW,293,0.0,0.0,80,0.00,CLR,,0.00,0.0,WeatherDisplay:10.37,2013-01-20 00:06:00,
2013-01-19 19:12:00,27.6,22.2,29.87,WNW,293,0.0,0.0,80,0.00,CLR,,0.00,0.0,WeatherDisplay:10.37,2013-01-20 00:12:00,
2013-01-19 19:17:00,27.6,22.2,29.87,WNW,293,0.0,0.0,80,0.00,CLR,,0.00,0.0,WeatherDisplay:10.37,2013-01-20 00:17:00,
2013-01-19 19:23:00,27.3,23.1,29.86,WNW,294,0.0,0.0,84,0.00,CLR,,0.00,0.0,WeatherDisplay:10.37,2013-01-20 00:23:00,
2013-01-19 19:28:00,27.1,22.9,29.86,WNW,294,0.0,0.0,84,0.00,CLR,,0.00,0.0,WeatherDisplay:10.37,2013-01-20 00:28:00,
2013-01-19 19:33:00,27.0,22.8,29.86,WNW,292,0.0,0.0,84,0.00,CLR,,0.00,0.0,WeatherDisplay:10.37,2013-01-20 00:33:00,
2013-01-19 19:38:00,27.0,22.8,29.86,WNW,294,0.0,0.0,84,0.00,CLR,,0.00,0.0,WeatherDisplay:10.37,2013-01-20 00:38:00,
2013-01-19 19:43:00,27.0,22.8,29.86,WNW,294,0.0,0.0,84,0.00,CLR,,0.00,0.0,WeatherDisplay:10.37,2013-01-20 00:43:00,
2013-01-19 19:48:00,27.0,22.8,29.86,WNW,294,0.0,0.0,84,0.00,CLR,,0.00,0.0,WeatherDisplay:10.37,2013-01-20 00:48:00,
2013-01-19 19:54:00,26.5,22.3,29.86,WNW,292,0.0,0.0,84,0.00,CLR,,0.00,0.0,WeatherDisplay:10.37,2013-01-20 00:54:00,
2013-01-19 19:59:00,27.0,22.8,29.86,WNW,293,0.0,0.0,84,0.00,CLR,,0.00,0.0,WeatherDisplay:10.37,2013-01-20 00:59:00,
2013-01-19 20:04:00,27.0,22.8,29.86,WNW,293,0.0,0.0,84,0.00,CLR,,0.00,0.0,WeatherDisplay:10.37,2013-01-20 01:04:00,
2013-01-19 20:09:00,26.2,22.3,29.86,WNW,294,0.0,0.0,85,0.00,CLR,,0.00,0.0,WeatherDisplay:10.37,2013-01-20 01:09:00,
2013-01-19 20:15:00,26.2,22.3,29.86,WNW,294,0.0,0.0,85,0.00,CLR,,0.00,0.0,WeatherDisplay:10.37,2013-01-20 01:15:00,
2013-01-19 20:20:00,26.2,22.3,29.86,WNW,294,0.0,0.0,85,0.00,CLR,,0.00,0.0,WeatherDisplay:10.37,2013-01-20 01:20:00,
2013-01-19 20:25:00,26.2,22.3,29.86,WNW,294,0.0,0.0,85,0.00,CLR,,0.00,0.0,WeatherDisplay:10.37,2013-01-20 01:25:00,
2013-01-19 20:30:00,25.6,22.0,29.86,WNW,294,0.0,0.0,86,0.00,CLR,,0.00,0.0,WeatherDisplay:10.37,2013-01-20 01:30:00,
2013-01-19 20:35:00,25.6,22.0,29.86,WNW,293,0.0,0.0,86,0.00,CLR,,0.00,0.0,WeatherDisplay:10.37,2013-01-20 01:35:00,
2013-01-19 20:40:00,25.4,21.8,29.86,WNW,294,0.0,0.0,86,0.00,CLR,,0.00,0.0,WeatherDisplay:10.37,2013-01-20 01:40:00,
2013-01-19 20:45:00,25.4,21.8,29.86,WNW,294,0.0,0.0,86,0.00,CLR,,0.00,0.0,WeatherDisplay:10.37,2013-01-20 01:45:00,
2013-01-19 20:51:00,25.4,22.1,29.86,WNW,293,0.0,0.0,87,0.00,CLR,,0.00,0.0,WeatherDisplay:10.37,2013-01-20 01:51:00,
2013-01-19 20:57:00,25.4,22.1,29.86,WNW,294,0.0,0.0,87,0.00,CLR,,0.00,0.0,WeatherDisplay:10.37,2013-01-20 01:57:00,
2013-01-19 21:02:00,25.4,22.3,29.86,WNW,293,0.0,0.0,88,0.00,CLR,,0.00,0.0,WeatherDisplay:10.37,2013-01-20 02:02:00,
2013-01-19 21:07:00,25.4,22.3,29.86,WNW,294,0.0,0.0,88,0.00,CLR,,0.00,0.0,WeatherDisplay:10.37,2013-01-20 02:07:00,
2013-01-19 21:13:00,25.4,22.3,29.86,WNW,293,0.0,0.0,88,0.00,CLR,,0.00,0.0,WeatherDisplay:10.37,2013-01-20 02:13:00,
2013-01-19 21:18:00,25.4,22.3,29.86,WNW,294,0.0,0.0,88,0.00,CLR,,0.00,0.0,WeatherDisplay:10.37,2013-01-20 02:18:00,
2013-01-19 21:23:00,25.6,22.5,29.85,WNW,292,0.0,0.0,88,0.00,CLR,,0.00,0.0,WeatherDisplay:10.37,2013-01-20 02:23:00,
2013-01-19 21:28:00,25.6,22.5,29.85,WNW,292,0.0,0.0,88,0.00,CLR,,0.00,0.0,WeatherDisplay:10.37,2013-01-20 02:28:00,
2013-01-19 21:33:00,25.6,22.5,29.85,WNW,292,0.0,0.0,88,0.00,CLR,,0.00,0.0,WeatherDisplay:10.37,2013-01-20 02:33:00,
2013-01-19 21:38:00,25.6,22.5,29.85,WNW,292,0.0,0.0,88,0.00,CLR,,0.00,0.0,WeatherDisplay:10.37,2013-01-20 02:38:00,
2013-01-19 21:43:00,25.6,22.5,29.85,WNW,292,0.0,0.0,88,0.00,CLR,,0.00,0.0,WeatherDisplay:10.37,2013-01-20 02:43:00,
2013-01-19 21:49:00,25.6,22.5,29.85,WNW,292,0.0,0.0,88,0.00,CLR,,0.00,0.0,WeatherDisplay:10.37,2013-01-20 02:49:00,
2013-01-19 21:54:00,25.9,23.1,29.83,WNW,294,0.0,0.0,89,0.00,CLR,,0.00,0.0,WeatherDisplay:10.37,2013-01-20 02:54:00,
2013-01-19 21:59:00,25.6,22.5,29.85,WNW,292,0.0,0.0,88,0.00,CLR,,0.00,0.0,WeatherDisplay:10.37,2013-01-20 02:59:00,
2013-01-19 22:04:00,25.6,22.5,29.85,WNW,292,0.0,0.0,88,0.00,CLR,,0.00,0.0,WeatherDisplay:10.37,2013-01-20 03:04:00,
2013-01-19 22:09:00,25.9,23.1,29.83,WNW,292,0.0,0.0,89,0.00,CLR,,0.00,0.0,WeatherDisplay:10.37,2013-01-20 03:09:00,
2013-01-19 22:14:00,25.9,23.1,29.83,WNW,292,0.0,0.0,89,0.00,CLR,,0.00,0.0,WeatherDisplay:10.37,2013-01-20 03:14:00,
2013-01-19 22:20:00,25.9,23.1,29.83,WNW,292,0.0,0.0,89,0.00,CLR,,0.00,0.0,WeatherDisplay:10.37,2013-01-20 03:20:00,
2013-01-19 22:27:00,26.1,23.3,29.82,WNW,294,0.0,0.0,89,0.00,CLR,,0.00,0.0,WeatherDisplay:10.37,2013-01-20 03:27:00,
2013-01-19 22:32:00,26.1,23.3,29.82,WNW,294,0.0,0.0,89,0.00,CLR,,0.00,0.0,WeatherDisplay:10.37,2013-01-20 03:32:00,
2013-01-19 22:37:00,26.1,23.3,29.82,WNW,294,0.0,0.0,89,0.00,CLR,,0.00,0.0,WeatherDisplay:10.37,2013-01-20 03:37:00,
2013-01-19 22:42:00,26.2,23.4,29.82,WNW,294,0.0,0.0,89,0.00,CLR,,0.00,0.0,WeatherDisplay:10.37,2013-01-20 03:42:00,
2013-01-19 22:47:00,26.2,23.4,29.82,WNW,294,0.0,0.0,89,0.00,CLR,,0.00,0.0,WeatherDisplay:10.37,2013-01-20 03:47:00,
2013-01-19 22:52:00,26.1,23.3,29.82,WNW,294,0.0,0.0,89,0.00,CLR,,0.00,0.0,WeatherDisplay:10.37,2013-01-20 03:52:00,
2013-01-19 22:57:00,26.1,23.3,29.82,WNW,294,0.0,0.0,89,0.00,CLR,,0.00,0.0,WeatherDisplay:10.37,2013-01-20 03:57:00,
2013-01-19 23:02:00,26.1,23.3,29.82,WNW,294,0.0,0.0,89,0.00,CLR,,0.00,0.0,WeatherDisplay:10.37,2013-01-20 04:02:00,
2013-01-19 23:07:00,26.1,23.3,29.82,WNW,294,0.0,0.0,89,0.00,CLR,,0.00,0.0,WeatherDisplay:10.37,2013-01-20 04:07:00,
2013-01-19 23:12:00,26.1,23.3,29.82,WNW,294,0.0,0.0,89,0.00,CLR,,0.00,0.0,WeatherDisplay:10.37,2013-01-20 04:12:00,
2013-01-19 23:17:00,26.2,23.4,29.79,WNW,293,0.0,0.0,89,0.00,CLR,,0.00,0.0,WeatherDisplay:10.37,2013-01-20 04:17:00,
2013-01-19 23:23:00,26.3,23.5,29.78,WNW,293,0.0,0.0,89,0.00,CLR,,0.00,0.0,WeatherDisplay:10.37,2013-01-20 04:23:00,
2013-01-19 23:28:00,26.2,23.4,29.79,WNW,294,0.0,0.0,89,0.00,CLR,,0.00,0.0,WeatherDisplay:10.37,2013-01-20 04:28:00,
2013-01-19 23:33:00,26.2,23.4,29.79,WNW,294,0.0,0.0,89,0.00,CLR,,0.00,0.0,WeatherDisplay:10.37,2013-01-20 04:33:00,
2013-01-19 23:38:00,26.2,23.4,29.79,WNW,294,0.0,0.0,89,0.00,CLR,,0.00,0.0,WeatherDisplay:10.37,2013-01-20 04:38:00,
2013-01-19 23:43:00,26.5,23.7,29.77,WNW,294,0.0,0.0,89,0.00,CLR,,0.00,0.0,WeatherDisplay:10.37,2013-01-20 04:43:00,
2013-01-19 23:48:00,26.5,23.7,29.77,WNW,294,0.0,0.0,89,0.00,CLR,,0.00,0.0,WeatherDisplay:10.37,2013-01-20 04:48:00,
2013-01-19 23:53:00,26.5,23.7,29.77,WNW,294,0.0,0.0,89,0.00,CLR,,0.00,0.0,WeatherDisplay:10.37,2013-01-20 04:53:00,
2013-01-19 23:59:00,26.5,23.7,29.77,WNW,294,0.0,0.0,89,0.00,CLR,,0.00,0.0,WeatherDisplay:10.37,2013-01-20 04:59:00,